User: anonymous   Login
Location: Breitenfeld
(46.8500°N, 15.6333°E)
Time: 21:01:12
(UTC+00:00)
Language:

STARLINK-1236 - Orbit

View from above orbital plane
View from above orbital plane
View from above satellite
View from above satellite

Ground track
Ground track

The orbit data is extracted from the following two-line orbital elements,

1 45191U 20012P   20185.66668981 -.00030051  00000-0 -20522-2 0  9995
2 45191  52.9994   1.7570 0001424 109.3125  70.8816 15.05576986 21456
Epoch (UTC): 03 July 2020 16:00:02
Eccentricity: 0.0001424
inclination: 52.9994°
perigee height: 549 km
apogee height: 551 km
right ascension of ascending node: 1.7570°
argument of perigee: 109.3125°
revolutions per day: 15.05576986
mean anomaly at epoch: 70.8816°
orbit number at epoch: 2145

The dashed part of the orbit path shows where the satellite is in the earth's shadow,  

DLR